Regional Weather Roundup
Issued by NWS

Home | Current Version | Previous Version | Graphics & Text | Print | Product List | Glossary On
Versions: 1 2 3 4 5 6 7 8 9 10 11 12 13 14 15 16 17 18 19 20 21 22 23 24 25 26 27 28 29 30 31 32 33 34 35 36 37 38 39 40 41 42 43 44 45 46 47 48 49 50
000
ASUS43 KBIS 172320
RWRND

NORTH DAKOTA REGIONAL WEATHER ROUNDUP
NATIONAL WEATHER SERVICE BISMARCK ND
500 PM CST WED DEC 17 2014

NOTE: "FAIR" INDICATES FEW OR NO CLOUDS BELOW 12,000 FEET WITH NO
SIGNIFICANT WEATHER AND/OR OBSTRUCTIONS TO VISIBILITY.


NDZ001>003-009>011-017-180000-
NORTHWEST NORTH DAKOTA

CITY           SKY/WX    TMP DP  RH WIND       PRES   REMARKS
WILLISTON      CLOUDY    20  13  74 S12       30.10F WCI   8
MINOT          CLEAR     13   7  77 SE6       30.18S WCI   4
MINOT AFB      PTCLDY    12  10  93 SE7       30.19R WCI   1
$$

NDZ018>021-031>035-040>046-180000-
SOUTHWEST NORTH DAKOTA

CITY           SKY/WX    TMP DP  RH WIND       PRES   REMARKS
BISMARCK       PTCLDY    14  10  84 SE6       30.21S WCI   5
DICKINSON      CLOUDY    18  13  80 SE12      30.05S WCI   5
GARRISON         N/A     16  11  80 SE9       30.16F WCI   4
HETTINGER ARPT CLOUDY    16  14  92 SE13      30.07S WCI   2
$$

NDZ004>008-012>016-024-026-027-054-180000-
NORTHEAST NORTH DAKOTA

CITY           SKY/WX    TMP DP  RH WIND       PRES   REMARKS
GRAND FORKS    CLEAR     14   9  80 CALM      30.32F
GRND FRKS AFB  CLEAR     13  11  94 E5        30.32F WCI   5
DEVILS LAKE    PTCLDY    10   0  61 S6        30.24F WCI   1
$$

NDZ022-023-025-028>030-036>039-047>053-180000-
SOUTHEAST NORTH DAKOTA

CITY           SKY/WX    TMP DP  RH WIND       PRES   REMARKS
FARGO          CLEAR     17  11  77 CALM      30.32R
JAMESTOWN      CLEAR     14   8  77 E6        30.25S WCI   5
$$



USA.gov is the U.S. government's official web portal to all federal, state and local government web resources and services.